Погода в Каневке

Погода в Каневке : погода сейчас, прогноз погоды и архив. Всё, что Вы хотите узнать о погоде в Каневке!

Поиск расширенной информации на нашем сайте:

Другие новости

Новости СМИ2

Главная страница сайта

Новости сайта

03.07.2017

Напоминаем, что на нашем специализированном сайте Метеоцентр.Азия вы можете получить высокодетализированные автоматические прогнозы погоды по пунктам России, СНГ и мира в авиационном формате (включающие направление и скорость ветра, видимость, явления погоды, количество и форму облачности, нижнюю и верхнюю границу облачности).


Погода в Каневке - сегодня

Время (UTC), дата Ветер
(°,м/с) 
Видим.   Явления Облачность Т
(°С)
Тd
(°С)
f(%) Тe
(°С)
Pmin
(гПа)
dP
(гПа)
Po
(мм)
O2
(г/м3)
Тmin Tmax R s Состояние
почвы
21 14.07.18 тихо ()   20000 м    3/1 600 м средняя, верхняя 
[Sc|Ac trans|Ci fib]
+10.7 +8 83 +11  1014.1  0.3  747  288           
00 15.07.18 тихо ()   20000 м    8/3 600 м верхняя 
[Sc|Ci fib]
+7.5 +6.5 93 +8  1014.4  0.2  747  292           
09 15.07.18 110 (В) 2-4  20000 м    8/4 600 м средняя, верхняя 
[Sc|Ac trans|Ci fib]
+24.5 +9.3 38 +25  1012.2  -0.5  746  274           
21 15.07.18 110 (В) 1-1  20000 м    5/3 300 м кучево-дожд., средняя 
[Cb cap|Ac trans]
+14.1 +11.8 86 +19  1012.2  0.2  746  283           
00 16.07.18 тихо ()   20000 м    ясно 
+9.4 +8.2 92 +9  1012.6  0.1  746  289           
09 16.07.18 310 (СЗ) 2-7  20000 м    6/6 600 м 
[Cu med, cong]
+27.1 +11.8 39 +31  1011.8  0.4  746  271           
21 16.07.18 тихо ()   20000 м    ясно 
+8.6 +7.2 91 +9  1021.3  1.7  752  293           
00 17.07.18 тихо ()   1000 м  дымка  ясно 
+5.1 +4.4 95 +5  1022.9  1.3  753  297           
09 17.07.18 020 (С) 2-4  20000 м    1/1 600 м 
[Cu hum]
+23.1 +10.1 44 +24  1022.5  754  278           
21 17.07.18 130 (ЮВ) 1-2  20000 м    ясно 
+13.8 +11.2 84 +18  1023.3  0.5  754  287           
00 18.07.18 тихо ()   20000 м    ясно 
+9.8 +8.9 94 +10  1024.1  0.5  754  292           
03 18.07.18 тихо ()   20000 м    ясно 
+16.5 +11.9 74 +20  1023.6  754  284  +9.6         
09 18.07.18 090 (В) 1-2  20000 м    ясно 
+28.5 +9.5 30 +29  1022.3  -0.7  754  273           
12 18.07.18 270 (З) 1-3  20000 м    ясно 
+30 +9.2 27 +30  1021.8  -0.5  753  272           
21 18.07.18 080 (В) 1-1  20000 м    ясно 
+17.2 +14.2 83 +26  1023  0.7  754  283           
00 19.07.18 тихо ()   20000 м    ясно 
+12.3 +11.4 94 +15  1024.2  0.9  755  289           
03 19.07.18 тихо ()   20000 м    ясно 
+18.6 +13.5 72 +25  1024  0.2  755  282  +12         
09 19.07.18 320 (СЗ) 1-2  20000 м    3/3 600 м верхняя 
[Cu hum|Ci fib]
+29.4 +11.4 33 +32  1022.6  -0.3  754  272           
21 19.07.18 130 (ЮВ) 1-2  20000 м    3/0 верхняя 
[Ci fib]
+15.1 +11.9 81 +20  1023.7  0.7  754  286           
12 20.07.18 130 (ЮВ) 4-8  20000 м    ясно 
+26.5 +11.5 39 +30  1020.7  -0.9  753  274           
15 20.07.18 150 (ЮВ) 3-7  20000 м    ясно 
+25.2 +12.7 46 +30  1019.5  -1.2  752  275           
21 20.07.18 140 (ЮВ) 2-3  20000 м    ясно 
+16.7 +12.1 74 +22  1019.1  -0.4  751  283           
00 21.07.18 тихо ()   20000 м    3/3 600 м 
[Cu hum]
+13.3 +11.1 87 +16  1019.2  -0.1  751  286           
21 21.07.18 тихо ()   20000 м    3/0 верхняя 
[Ci fib]
+16.6 +13.7 83 +23  1015.1  748  281           
06 22.07.18 180 (Ю) 4-8  20000 м    3/0 верхняя 
[Ci fib]
+25.1 +13.4 48 +31  1013.1  -0.8  747  273  +14.3        сухая 
Время (UTC), дата Ветер
(°,м/с) 
Видим.   Явления Облачность Т
(°С)
Тd
(°С)
f(%) Тe
(°С)
Pmin
(гПа)
dP
(гПа)
Po
(мм)
O2
(г/м3)
Тmin Tmax R s Состояние
почвы

Для получения пояснительной информации подведите курсор к названию столбца.

ПОГОДА в Каневке - архив

Всё, что Вы хотите узнать о погоде в Каневке - удобно и подробно!

Выберите нужную дату (начиная с 1 января 2015* года) и нажмите кнопку "Найти".
Будут отображены архивные сводки погоды по пункту Каневка, начиная с указанной даты.


Отображать данные в формате CSV (для использования в таблицах Excel)


Внимание! Наш архив погоды предназначен исключительно для личного некоммерческого использования в познавательных целях. Если Вам необходимы официальные справки о состоянии погоды (для производственных, юридических, коммерческих и т.п. целей), обращайтесь в органы Росгидромета.

*Примечание: данная дата относится к архиву по метеостанциям СССР (Россия, СНГ, Балтия).
Архив по метеостанциям Зарубежной Европы и Азии (кроме Китая) хранится 10 дней, по другим регионам земного шара (Китай, Африка, Америка, Австралия, Океания) - 1 день.

Каневка - район местоположения метеостанции


Название, широта, долгота, высота метеостанции:
Каневка 67.1°ш. 39.7°д. 149 м над ур. моря [Российская Федерация]

Дополнительная информация

В oтличие oт бoльшинства пoгoдных сайтoв мы публикуем пoдрoбную метеoинфoрмацию в детальнoм прoфессиoнальнoм фoрмате.

Характеристики температуры и влажнoсти вoздуха измеряются на высoте 2 м в тени вдали oт зданий и деревьев.
Скoрoсть ветра измеряется на высoте 10 м (на урoвне рoста челoвека скoрoсть ветра ниже в 1.5-2 раза). Если метеoстанция нахoдится в гoрoде или в лесу, тo скoрoсть ветра занижена на 2-4 м/с пo сравнению с oткрытым местoм. Скoрoсть ветра над акватoриями крупных рек и oзёр, а также на вершинах хoлмoв на 2-5 м/с выше, чем в oбычных услoвиях.
Атмoсфернoе давление в разных тoчках местнoсти мoжет значительнo oтличаться oт давления на метеoстанции, в зависимoсти oт услoвий рельефа (при пoдъёме на 10 м давление пoнижается примернo на 1 мм рт.ст.).